Ruidoso, NM

12:11 AM MST on November 19, 2017 (GMT -0700)
Sierra Blanca Regional

Weather History for KSRR - September, 2013

Change the Weather History Date:

Thursday, September 26, 2013

  Actual Average Record
Temperature  
Mean Temperature 66 °F -  
Max Temperature 75 °F 71 °F 82 °F (1999)
Min Temperature 57 °F 48 °F 33 °F (2003)
Cooling Degree Days 1    
Growing Degree Days 16 (Base 50)    
Moisture  
Dew Point 39 °F    
Average Humidity 40    
Maximum Humidity 59    
Minimum Humidity 27    
Precipitation  
Precipitation 0.00 in - - ()
Sea Level Pressure  
Sea Level Pressure 30.05 in    
Wind  
Wind Speed 13 mph (SSW)    
Max Wind Speed 24 mph    
Max Gust Speed 31 mph    
Visibility 10 miles    
Events      
Averages and records for this station are not official NWS values.
T = Trace of Precipitation, MM = Missing Value Source: NWS Daily Summary

Daily Weather History Graph

Daily Weather History Graph

Search for Another Location

Airport or City:

Trip Planner

Search our weather history database for the weather conditions in past years. The results will help you decide how hot, cold, wet, or windy it might be!

Date:

Astronomy

Sep. 26, 2013 Rise Set
Actual Time 6:53 AM MDT 6:52 PM MDT
Civil Twilight 6:28 AM MDT 7:17 PM MDT
Nautical Twilight 5:59 AM MDT 7:46 PM MDT
Astronomical Twilight 5:30 AM MDT 8:15 PM MDT
Moon No Moon Rise 1:32 PM MDT (9/26)
Length of Visible Light 12h 49m
Length of Day
11h 59m
Waning Gibbous, 54% of the Moon is Illuminated
Sep 26
Waning Gibbous
Sep 26
Last Quarter
Oct 4
New
Oct 11
First Quarter
Oct 18
Full

Hourly Weather History & Observations

Time (MDT) Temp. Dew Point Humidity Pressure Visibility Wind Dir Wind Speed Gust Speed Precip Events Conditions
12:15 AM 59.0 °F 42.8 °F 55% 30.02 in 10.0 mi SSE 11.5 mph - N/A   Clear
12:35 AM 59.0 °F 42.8 °F 55% 30.02 in 10.0 mi SSE 9.2 mph - N/A   Clear
12:55 AM 59.0 °F 42.8 °F 55% 30.02 in 10.0 mi South 6.9 mph - N/A   Clear
1:15 AM 59.0 °F 42.8 °F 55% 30.02 in 10.0 mi South 8.1 mph - N/A   Clear
1:35 AM 57.2 °F 42.8 °F 59% 30.01 in 10.0 mi South 10.4 mph - N/A   Clear
1:55 AM 57.2 °F 42.8 °F 59% 30.01 in 10.0 mi South 9.2 mph - N/A   Clear
2:15 AM 59.0 °F 41.0 °F 51% 30.01 in 10.0 mi SSW 12.7 mph - N/A   Clear
2:35 AM 60.8 °F 41.0 °F 48% 30.01 in 10.0 mi SSW 15.0 mph - N/A   Clear
2:55 AM 62.6 °F 39.2 °F 42% 30.01 in 10.0 mi SW 12.7 mph - N/A   Clear
3:15 AM 60.8 °F 39.2 °F 45% 30.00 in 10.0 mi SSW 13.8 mph 18.4 mph N/A   Clear
3:35 AM 60.8 °F 39.2 °F 45% 30.01 in 10.0 mi SSW 10.4 mph - N/A   Clear
3:55 AM 60.8 °F 39.2 °F 45% 30.00 in 10.0 mi SW 13.8 mph - N/A   Clear
4:15 AM 60.8 °F 37.4 °F 42% 30.00 in 10.0 mi SW 15.0 mph - N/A   Clear
4:35 AM 60.8 °F 37.4 °F 42% 30.00 in 10.0 mi SW 15.0 mph 20.7 mph N/A   Clear
4:55 AM 60.8 °F 37.4 °F 42% 30.01 in 10.0 mi SW 16.1 mph - N/A   Clear
5:15 AM 59.0 °F 37.4 °F 45% 30.01 in 10.0 mi South 9.2 mph - N/A   Clear
5:35 AM 57.2 °F 37.4 °F 48% 30.02 in 10.0 mi South 10.4 mph - N/A   Clear
5:55 AM 57.2 °F 37.4 °F 48% 30.03 in 10.0 mi South 11.5 mph - N/A   Clear
6:15 AM 59.0 °F 35.6 °F 42% 30.03 in 10.0 mi SSW 11.5 mph - N/A   Clear
6:35 AM 57.2 °F 35.6 °F 44% 30.03 in 10.0 mi SSW 10.4 mph - N/A   Clear
6:55 AM 57.2 °F 35.6 °F 44% 30.04 in 10.0 mi SW 8.1 mph - N/A   Clear
7:15 AM 57.2 °F 35.6 °F 44% 30.04 in 10.0 mi SW 10.4 mph - N/A   Clear
7:35 AM 59.0 °F 35.6 °F 42% 30.05 in 10.0 mi SSW 11.5 mph - N/A   Clear
7:55 AM 62.6 °F 35.6 °F 37% 30.05 in 10.0 mi SSW 10.4 mph - N/A   Clear
8:15 AM 64.4 °F 35.6 °F 34% 30.06 in 10.0 mi South 9.2 mph - N/A   Clear
8:35 AM 64.4 °F 35.6 °F 34% 30.06 in 10.0 mi South 10.4 mph 17.3 mph N/A   Clear
8:55 AM 66.2 °F 37.4 °F 35% 30.07 in 10.0 mi South 9.2 mph - N/A   Clear
9:15 AM 66.2 °F 37.4 °F 35% 30.07 in 10.0 mi SSW 6.9 mph - N/A   Clear
9:35 AM 68.0 °F 37.4 °F 33% 30.08 in 10.0 mi SSW 12.7 mph 16.1 mph N/A   Clear
9:55 AM 68.0 °F 37.4 °F 33% 30.08 in 10.0 mi SSW 13.8 mph 19.6 mph N/A   Clear
10:15 AM 69.8 °F 37.4 °F 31% 30.08 in 10.0 mi SW 19.6 mph 25.3 mph N/A   Clear
10:35 AM 69.8 °F 37.4 °F 31% 30.08 in 10.0 mi South 17.3 mph 27.6 mph N/A   Clear
10:55 AM 71.6 °F 37.4 °F 29% 30.08 in 10.0 mi SSW 21.9 mph 28.8 mph N/A   Clear
11:15 AM 71.6 °F 39.2 °F 31% 30.09 in 10.0 mi SSW 19.6 mph 28.8 mph N/A   Clear
11:35 AM 71.6 °F 37.4 °F 29% 30.09 in 10.0 mi SSW 24.2 mph 28.8 mph N/A   Scattered Clouds
11:55 AM 71.6 °F 39.2 °F 31% 30.09 in 10.0 mi SSW 20.7 mph 26.5 mph N/A   Scattered Clouds
12:15 PM 71.6 °F 39.2 °F 31% 30.08 in 10.0 mi SSW 19.6 mph 26.5 mph N/A   Scattered Clouds
12:35 PM 71.6 °F 39.2 °F 31% 30.08 in 10.0 mi SSW 19.6 mph 24.2 mph N/A   Partly Cloudy
12:55 PM 73.4 °F 39.2 °F 29% 30.07 in 10.0 mi South 17.3 mph 26.5 mph N/A   Clear
1:15 PM 71.6 °F 39.2 °F 31% 30.07 in 10.0 mi SSW 21.9 mph 31.1 mph N/A   Clear
1:35 PM 73.4 °F 39.2 °F 29% 30.07 in 10.0 mi SW 23.0 mph 29.9 mph N/A   Clear
1:55 PM 73.4 °F 39.2 °F 29% 30.07 in 10.0 mi SW 17.3 mph 29.9 mph N/A   Clear
2:15 PM 73.4 °F 39.2 °F 29% 30.06 in 10.0 mi SW 19.6 mph 29.9 mph N/A   Clear
2:35 PM 73.4 °F 39.2 °F 29% 30.06 in 10.0 mi SW 17.3 mph 24.2 mph N/A   Clear
2:55 PM 73.4 °F 41.0 °F 31% 30.05 in 10.0 mi WSW 13.8 mph 20.7 mph N/A   Clear
3:15 PM 73.4 °F 39.2 °F 29% 30.05 in 10.0 mi SW 16.1 mph 23.0 mph N/A   Clear
3:35 PM 75.2 °F 39.2 °F 27% 30.04 in 10.0 mi SSW 20.7 mph 27.6 mph N/A   Clear
3:55 PM 73.4 °F 39.2 °F 29% 30.04 in 10.0 mi SSW 19.6 mph 27.6 mph N/A   Clear
4:15 PM 73.4 °F 41.0 °F 31% 30.04 in 10.0 mi SW 21.9 mph 26.5 mph N/A   Clear
4:35 PM 73.4 °F 41.0 °F 31% 30.04 in 10.0 mi SW 20.7 mph 29.9 mph N/A   Clear
4:55 PM 73.4 °F 41.0 °F 31% 30.03 in 10.0 mi SW 23.0 mph 28.8 mph N/A   Clear
5:15 PM 73.4 °F 41.0 °F 31% 30.03 in 10.0 mi SW 21.9 mph 28.8 mph N/A   Clear
5:35 PM 71.6 °F 39.2 °F 31% 30.03 in 10.0 mi SW 20.7 mph 25.3 mph N/A   Clear
5:55 PM 71.6 °F 39.2 °F 31% 30.03 in 10.0 mi SW 17.3 mph 23.0 mph N/A   Clear
6:15 PM 69.8 °F 39.2 °F 33% 30.03 in 10.0 mi SW 17.3 mph 28.8 mph N/A   Clear
6:35 PM 68.0 °F 39.2 °F 35% 30.03 in 10.0 mi SW 16.1 mph - N/A   Clear
6:55 PM 66.2 °F 39.2 °F 37% 30.04 in 10.0 mi SW 15.0 mph 19.6 mph N/A   Clear
7:15 PM 64.4 °F 39.2 °F 40% 30.04 in 10.0 mi SSW 10.4 mph - N/A   Clear
7:35 PM 64.4 °F 39.2 °F 40% 30.04 in 10.0 mi SSW 9.2 mph - N/A   Clear
7:55 PM 62.6 °F 39.2 °F 42% 30.04 in 10.0 mi South 6.9 mph - N/A   Clear
8:15 PM 60.8 °F 39.2 °F 45% 30.05 in 10.0 mi South 6.9 mph - N/A   Clear
8:35 PM 60.8 °F 39.2 °F 45% 30.06 in 10.0 mi SSW 6.9 mph - N/A   Clear
8:55 PM 60.8 °F 39.2 °F 45% 30.06 in 10.0 mi SSW 4.6 mph - N/A   Clear
9:15 PM 62.6 °F 39.2 °F 42% 30.07 in 10.0 mi South 5.8 mph - N/A   Clear
9:35 PM 60.8 °F 39.2 °F 45% 30.07 in 10.0 mi South 5.8 mph - N/A   Clear
9:55 PM 59.0 °F 39.2 °F 48% 30.07 in 10.0 mi SSW 6.9 mph - N/A   Clear
10:15 PM 57.2 °F 39.2 °F 51% 30.07 in 10.0 mi SSW 8.1 mph - N/A   Clear
10:35 PM 59.0 °F 39.2 °F 48% 30.06 in 10.0 mi SW 6.9 mph - N/A   Clear
10:55 PM 57.2 °F 39.2 °F 51% 30.07 in 10.0 mi South 6.9 mph - N/A   Clear
11:15 PM 57.2 °F 39.2 °F 51% 30.07 in 10.0 mi SSW 8.1 mph - N/A   Partly Cloudy
11:35 PM 57.2 °F 39.2 °F 51% 30.06 in 10.0 mi SW 9.2 mph - N/A   Partly Cloudy
11:55 PM 57.2 °F 41.0 °F 55% 30.06 in 10.0 mi SSW 9.2 mph - N/A   Mostly Cloudy